TimeAKST,TemperatureF,Dew PointF,Humidity,Sea Level PressureIn,VisibilityMPH,Wind Direction,Wind SpeedMPH,Gust SpeedMPH,PrecipitationIn,Events,Conditions,WindDirDegrees,DateUTC
12:54 AM,25.0,19.0,78,30.00,10.0,East,3.5,-,N/A,,Clear,80,2013-03-07 09:54:00
1:54 AM,24.1,18.0,77,30.02,10.0,WNW,11.5,-,N/A,,Clear,290,2013-03-07 10:54:00
2:54 AM,23.0,18.0,81,30.02,10.0,Calm,Calm,-,N/A,,Clear,0,2013-03-07 11:54:00
3:54 AM,23.0,17.1,78,30.02,10.0,WNW,11.5,-,N/A,,Clear,290,2013-03-07 12:54:00
4:54 AM,21.9,16.0,78,30.01,10.0,WNW,10.4,-,N/A,,Clear,290,2013-03-07 13:54:00
5:54 AM,21.0,16.0,81,30.00,10.0,WNW,8.1,-,N/A,,Clear,290,2013-03-07 14:54:00
6:54 AM,19.9,16.0,85,30.01,10.0,WNW,13.8,-,N/A,,Clear,290,2013-03-07 15:54:00
7:54 AM,21.9,16.0,78,30.01,10.0,WNW,9.2,-,N/A,,Clear,290,2013-03-07 16:54:00
8:54 AM,24.1,17.1,75,30.01,10.0,WNW,11.5,-,N/A,,Clear,290,2013-03-07 17:54:00
9:54 AM,27.0,18.0,69,30.02,10.0,West,8.1,-,N/A,,Clear,280,2013-03-07 18:54:00
10:54 AM,30.9,17.1,57,30.02,10.0,Calm,Calm,-,N/A,,Clear,0,2013-03-07 19:54:00
11:54 AM,32.0,19.0,59,30.04,10.0,Calm,Calm,-,N/A,,Clear,0,2013-03-07 20:54:00
12:54 PM,33.1,19.0,56,30.03,10.0,SE,5.8,-,N/A,,Clear,130,2013-03-07 21:54:00
1:54 PM,34.0,24.1,67,30.03,10.0,SE,6.9,-,N/A,,Clear,130,2013-03-07 22:54:00
2:54 PM,35.1,23.0,61,30.03,10.0,ESE,6.9,-,N/A,,Clear,120,2013-03-07 23:54:00
3:54 PM,35.1,23.0,61,30.01,10.0,ESE,5.8,-,N/A,,Clear,120,2013-03-08 00:54:00
4:54 PM,37.0,21.0,52,30.02,10.0,ESE,6.9,-,N/A,,Clear,110,2013-03-08 01:54:00
5:54 PM,35.1,23.0,61,30.02,10.0,East,6.9,-,N/A,,Clear,90,2013-03-08 02:54:00
6:54 PM,36.0,23.0,59,30.01,10.0,East,5.8,-,N/A,,Clear,100,2013-03-08 03:54:00
7:54 PM,34.0,24.1,67,30.04,10.0,Variable,3.5,-,N/A,,Clear,0,2013-03-08 04:54:00
8:54 PM,30.0,25.0,82,30.04,10.0,West,3.5,-,N/A,,Clear,280,2013-03-08 05:54:00
9:54 PM,30.0,23.0,75,30.05,10.0,WNW,3.5,-,N/A,,Clear,290,2013-03-08 06:54:00
10:54 PM,28.9,23.0,78,30.04,10.0,Calm,Calm,-,N/A,,Clear,0,2013-03-08 07:54:00
11:54 PM,28.9,21.9,75,30.06,10.0,WNW,8.1,-,N/A,,Clear,300,2013-03-08 08:54:00